This is the latest recevied weather packets stored in our database for station/object KA7KDX-4. If no packets are shown the sender has not sent any weather packets the latest 1 day(s).
| Time | Temp. | Humidity | Pressure | Rain* | Wind** | Luminosity | Snow |
|---|---|---|---|---|---|---|---|
| 1778018105 | 17.22° C | 40% | 1003.9 hPa | 0 mm | 4.47 m/s, 17° | - | - |
| 1778017805 | 17.22° C | 40% | 1003.9 hPa | 0 mm | 5.36 m/s, 21° | - | - |
| 1778017505 | 17.22° C | 40% | 1003.7 hPa | 0 mm | 6.71 m/s, 20° | - | - |
| 1778017205 | 17.22° C | 39% | 1003.8 hPa | 0 mm | 5.36 m/s, 357° | - | - |
| 1778016905 | 17.22° C | 37% | 1003.8 hPa | 0 mm | 3.13 m/s, 21° | - | - |
| 1778016606 | 17.22° C | 37% | 1003.8 hPa | 0 mm | 2.24 m/s, 123° | - | - |
| 1778016306 | 17.22° C | 36% | 1003.7 hPa | 0 mm | 2.24 m/s, 122° | - | - |
| 1778016006 | 17.22° C | 36% | 1003.8 hPa | 0 mm | 2.24 m/s, 122° | - | - |
| 1778015705 | 17.22° C | 36% | 1003.8 hPa | 0 mm | 2.24 m/s, 123° | - | - |
| 1778015405 | 17.78° C | 36% | 1003.6 hPa | 0 mm | 2.24 m/s, 124° | - | - |
| 1778015105 | 17.78° C | 35% | 1003.4 hPa | 0 mm | 2.24 m/s, 126° | - | - |
| 1778014805 | 17.78° C | 35% | 1003.5 hPa | 0 mm | 2.68 m/s, 140° | - | - |
| 1778014505 | 17.78° C | 36% | 1003.7 hPa | 0 mm | 3.13 m/s, 137° | - | - |
| 1778014205 | 17.78° C | 36% | 1003.7 hPa | 0 mm | 3.58 m/s, 131° | - | - |
| 1778013906 | 17.22° C | 36% | 1003.8 hPa | 0 mm | 2.68 m/s, 45° | - | - |
| 1778013606 | 17.22° C | 36% | 1004 hPa | 0 mm | 2.24 m/s, 47° | - | - |
| 1778013306 | 17.22° C | 36% | 1004.1 hPa | 0 mm | 2.68 m/s, 114° | - | - |
| 1778013006 | 17.22° C | 36% | 1004.1 hPa | 0 mm | 2.68 m/s, 145° | - | - |
| 1778012705 | 17.22° C | 37% | 1004.2 hPa | 0 mm | 2.24 m/s, 154° | - | - |
| 1778012405 | 17.22° C | 36% | 1004.1 hPa | 0 mm | 3.58 m/s, 149° | - | - |
| 1778012105 | 17.22° C | 36% | 1004.2 hPa | 0 mm | 3.58 m/s, 150° | - | - |
| 1778011805 | 16.67° C | 37% | 1004.4 hPa | 0 mm | 2.24 m/s, 161° | - | - |
| 1778011505 | 16.67° C | 37% | 1004.4 hPa | 0 mm | 2.68 m/s, 168° | - | - |
| 1778011205 | 16.67° C | 37% | 1004.5 hPa | 0 mm | 3.13 m/s, 164° | - | - |
| 1778010906 | 16.67° C | 37% | 1004.5 hPa | 0 mm | 3.13 m/s, 184° | - | - |
* Rain latest hour (hover to see other rain measurements)
** Current wind speed in m/s (hover to see current wind gust speed)